Location: Oshawa
(43.9000°N, 78.8670°W)
Time: 21:38:43
(UTC-04:00)

Iridium 98 - Visible Passes

Search period start: 30 July 2016 00:00
Search period end: 09 August 2016 00:00
Orbit: 776 x 779 km, 86.4° (Epoch: 30 July)

Date Brightness Start Highest point End Pass type
(mag) Time Alt. Az. Time Alt. Az. Time Alt. Az.
30 Jul 7.2 01:46:12 10° NNE 01:50:24 24° ENE 01:51:43 22° E visible
30 Jul 6.0 03:26:23 10° NNW 03:31:18 42° W 03:32:09 39° WSW visible
31 Jul 7.8 01:13:55 10° NE 01:16:31 14° ENE 01:18:02 12° E visible
31 Jul 5.4 02:52:39 10° N 02:57:53 77° W 02:58:29 67° SSW visible
01 Aug 5.7 02:19:10 10° N 02:24:21 60° E 02:24:50 57° ESE visible
01 Aug 7.2 04:01:13 10° NW 04:04:30 17° WNW 04:05:17 17° W visible
02 Aug 6.7 01:45:57 10° NNE 01:50:40 33° E 01:51:11 33° E visible
02 Aug 6.5 03:26:48 10° NNW 03:31:18 30° W 03:31:38 30° W visible
03 Aug 7.4 01:13:09 10° NNE 01:16:52 19° ENE 01:17:32 19° E visible
03 Aug 5.7 02:52:52 10° NNW 02:57:56 54° W 02:57:59 54° W visible
04 Aug 8.0 00:41:45 10° NE 00:42:55 11° ENE 00:43:54 10° E visible
04 Aug 5.4 02:19:14 10° N 02:24:21 84° NE 02:24:21 84° NE visible
04 Aug 7.6 04:02:30 10° NW 04:04:23 12° WNW 04:04:49 12° W visible
05 Aug 6.2 01:45:50 10° N 01:50:44 47° ENE 01:50:44 47° ENE visible
05 Aug 7.0 03:27:22 10° NNW 03:31:11 21° W 03:31:11 21° W visible
06 Aug 7.0 01:12:45 10° NNE 01:17:07 27° ENE 01:17:07 27° ENE visible
06 Aug 6.4 02:53:11 10° NNW 02:57:34 37° WNW 02:57:34 37° WNW visible
07 Aug 7.6 00:40:15 10° NE 00:43:19 15° ENE 00:43:31 15° ENE visible
07 Aug 5.8 02:19:23 10° N 02:23:58 62° NW 02:23:58 62° NW visible
08 Aug 5.9 01:45:51 10° N 01:50:22 60° NE 01:50:22 60° NE visible
08 Aug 7.5 03:28:13 10° NW 03:30:49 15° WNW 03:30:49 15° WNW visible
